Regional Weather Roundup
Issued by NWS Cleveland, OH

Home | Current Version | Previous Version | Text Only | Print | Product List | Glossary Off
Versions: 1 2 3 4 5 6 7 8 9 10 11 12 13 14 15 16 17 18 19 20 21 22 23 24 25 26 27 28 29 30 31 32 33 34 35 36 37 38 39 40 41 42 43 44 45 46 47 48 49 50

000
ASUS41 KCLE 211202
RWRCLE
OHIO REGIONAL WEATHER ROUNDUP
NATIONAL WEATHER SERVICE CLEVELAND, OH
800 AM EDT TUE OCT 21 2014

NOTE: "FAIR" INDICATES FEW OR NO CLOUDS BELOW 12,000 FEET WITH NO
SIGNIFICANT WEATHER AND/OR OBSTRUCTIONS TO VISIBILITY.

OHZ001>008-015>018-024>027-034-035-043-044-211300-
   NORTHWEST OHIO

CITY           SKY/WX    TMP DP  RH WIND       PRES   REMARKS
DEFIANCE       CLOUDY    47  43  86 VRB7      29.98R
FINDLAY        LGT RAIN  48  45  89 NW9       29.95R
TOLEDO EXPRESS CLOUDY    47  44  90 NW7       29.96R
TOLEDO EXEC    CLOUDY    49  43  80 NW9       29.96R
LIMA           CLOUDY    48  43  82 NW9       29.96R
$$

OHZ009>014-019>023-028>033-038-089-211300-
   NORTHEAST OHIO

CITY           SKY/WX    TMP DP  RH WIND       PRES   REMARKS
CLE-HOPKINS    CLOUDY    50  47  89 N9        29.91R
CLE-LAKEFRONT  CLOUDY    53  47  79 NW15      29.88R
CUY CO. ARPT   CLOUDY    52  50  93 N12       29.89R
LORAIN-ELYRIA  CLOUDY    49  47  93 N8        29.91R
ASHTABULA      LGT RAIN  50  48  93 NW5       29.86R
AKRON-CANTON   LGT RAIN  51  47  86 NW7       29.88R FOG
WOOSTER        CLOUDY    51  47  86 N7        29.89R
MANSFIELD      CLOUDY    47  46  97 NW14      29.90R
YOUNGSTOWN     LGT RAIN  50  48  93 N9        29.85R FOG
$$

OHZ042-051>053-060>062-070>072-077>081-211300-
  SOUTHWEST OHIO

CITY           SKY/WX    TMP DP  RH WIND       PRES   REMARKS
CINC-COVINGTON PTCLDY    45  42  89 W8        29.99R
CINC-LUNKEN    CLOUDY    50  45  83 NW8       29.99R
HAMILTON       CLOUDY    50  46  86 NW8       29.99R
DAYTON         CLOUDY    49  43  80 NW12      29.98R
WRIGHT-PAT AFB NOT AVBL
DAYTON GENERAL CLOUDY    49  44  83 NW12      29.96R
WILMINGTON     CLOUDY    49  44  83 NW13      29.95R
$$

OHZ036-037-039>041-045>050-054>059-063>069-073>076-082>088-211300-
  CENTRAL AND SOUTHEAST OHIO

CITY           SKY/WX    TMP DP  RH WIND       PRES   REMARKS
COLUMBUS       LGT RAIN  50  47  89 NW13      29.91R
OSU AIRPORT    CLOUDY    49  46  90 N8        29.92R
BOLTON FIELD   CLOUDY    48  48 100 NW7       29.93R
RICKENBACK AFB NOT AVBL
NEWARK         CLOUDY    51  48  89 NW6       29.90R FOG
MARION         CLOUDY    48  44  86 NW9       29.93R
LANCASTER      CLOUDY    51  48  89 NW7       29.91R FOG
ZANESVILLE     CLOUDY    48  47  96 SW3       29.88S FOG
NEW PHILLY     CLOUDY    52  50  93 CALM      29.88R FOG
$$


USA.gov is the U.S. government's official web portal to all federal, state and local government web resources and services.